Shungnak AP, Shungnak, AK, AK

5:50 PM AKST on December 09, 2019 (GMT -0900)
Shungnak AP, Shungnak, AK

Weather History for PAGH - October, 2019

Change the Weather History Date:

Sunday, October 27, 2019

  Actual Average (PAFM) Record (PAFM)
Temperature  
Mean Temperature 32 °F -  
Max Temperature 36 °F 17 °F 37 °F (2002)
Min Temperature 28 °F 9 °F -15 °F (1983)
Degree Days  
Heating Degree Days 34    
Moisture  
Dew Point 29 °F    
Average Humidity 92    
Maximum Humidity 100    
Minimum Humidity 85    
Precipitation  
Precipitation 0.07 in - - ()
Sea Level Pressure  
Sea Level Pressure 30.00 in    
Wind  
Wind Speed 31 mph (ESE)    
Max Wind Speed 40 mph    
Max Gust Speed 52 mph    
Visibility 6 miles    
Events Rain , Snow    
Averages and records for this station are not official NWS values.
T = Trace of Precipitation, MM = Missing Value Source: NWS Daily Summary

Daily Weather History Graph

Daily Weather History Graph

Search for Another Location

Airport or City:

Astronomy

Oct. 27, 2019 Rise Set
Actual Time 10:11 AM AKDT 6:12 PM AKDT
Civil Twilight 9:13 AM AKDT 7:10 PM AKDT
Nautical Twilight 8:10 AM AKDT 8:13 PM AKDT
Astronomical Twilight 7:08 AM AKDT 9:14 PM AKDT
Moon 8:54 AM AKDT (10/27) 6:53 PM AKDT (10/27)
Length of Visible Light 9h 57m
Length of Day
8h 00m
Waning Crescent, 0% of the Moon is Illuminated
Oct 27
Waning Crescent
Oct 27
New
Nov 4
First Quarter
Nov 12
Full
Nov 19
Last Quarter

Hourly Weather History & Observations

Time (AKDT) Temp. Windchill Dew Point Humidity Pressure Visibility Wind Dir Wind Speed Gust Speed Precip Events Conditions
12:23 AM 28.4 °F 14.1 °F 26.6 °F 93% 30.18 in 9.0 mi East 24.2 mph 38.0 mph 0.00 in Snow Light Snow
12:56 AM 28.9 °F 13.7 °F 26.1 °F 89% 30.19 in 9.0 mi ESE 28.8 mph 40.3 mph 0.00 in Snow Light Snow
1:56 AM 28.9 °F 14.3 °F 26.1 °F 89% 30.19 in 7.0 mi ESE 26.5 mph 38.0 mph 0.00 in Snow Light Snow
2:23 AM 28.4 °F 13.3 °F 26.6 °F 93% 30.15 in 2.5 mi ESE 27.6 mph 42.6 mph 0.00 in Snow Light Snow
2:43 AM 28.4 °F 12.3 °F 26.6 °F 93% 30.15 in 4.0 mi ESE 32.2 mph 44.9 mph 0.00 in Snow Light Snow
2:56 AM 28.9 °F 12.5 °F 27.0 °F 92% 30.17 in 4.0 mi ESE 34.5 mph 44.9 mph 0.00 in Snow Light Snow
3:11 AM 30.2 °F 15.2 °F 26.6 °F 86% 30.14 in 6.0 mi ESE 29.9 mph 40.3 mph 0.00 in Snow Light Snow
3:56 AM 28.9 °F 13.0 °F 27.0 °F 92% 30.15 in 3.0 mi ESE 32.2 mph 40.3 mph 0.00 in Snow Light Snow
4:24 AM 28.4 °F 12.5 °F 26.6 °F 93% 30.10 in 5.0 mi East 31.1 mph 43.7 mph 0.00 in Snow Light Snow
4:56 AM 30.0 °F 14.7 °F 26.1 °F 85% 30.12 in 9.0 mi ESE 31.1 mph 43.7 mph 0.00 in Snow Light Snow
5:56 AM 30.0 °F 14.5 °F 26.1 °F 85% 30.10 in 9.0 mi East 32.2 mph 41.4 mph 0.00 in   Overcast
6:56 AM 30.0 °F 14.7 °F 27.0 °F 88% 30.08 in 4.0 mi ESE 31.1 mph 47.2 mph 0.00 in Snow Light Snow
7:08 AM 30.2 °F 15.7 °F 26.6 °F 86% 30.06 in 2.0 mi ESE 27.6 mph 41.4 mph 0.00 in Snow Light Snow
7:18 AM 30.2 °F 14.5 °F 28.4 °F 93% 30.07 in 1.8 mi ESE 33.4 mph 44.9 mph 0.00 in Snow Light Snow
7:31 AM 28.4 °F 12.3 °F 28.4 °F 100% 30.06 in 1.2 mi ESE 32.2 mph 46.0 mph 0.00 in Snow Light Snow
7:46 AM 28.4 °F 12.3 °F 28.4 °F 100% 30.05 in 1.0 mi ESE 32.2 mph 44.9 mph 0.00 in Snow Light Snow
7:53 AM 28.4 °F 13.0 °F 28.4 °F 100% 30.05 in 0.8 mi ESE 28.8 mph 41.4 mph 0.00 in Snow Light Snow
7:56 AM 28.9 °F 13.5 °F 28.0 °F 96% 30.07 in 0.8 mi ESE 29.9 mph 42.6 mph 0.00 in Snow Light Snow
8:05 AM 28.4 °F 12.3 °F 28.4 °F 100% 30.04 in 0.8 mi East 32.2 mph 40.3 mph 0.00 in Snow Light Snow
8:23 AM 28.4 °F 12.0 °F 28.4 °F 100% 30.03 in 1.0 mi East 33.4 mph 47.2 mph 0.00 in Snow Light Snow
8:44 AM 28.4 °F 12.3 °F 28.4 °F 100% 30.03 in 1.5 mi ESE 32.2 mph 43.7 mph 0.00 in Snow Light Snow
8:56 AM 28.9 °F 12.8 °F 28.9 °F 100% 30.05 in 2.0 mi ESE 33.4 mph 42.6 mph 0.00 in Snow Light Snow
9:22 AM 28.4 °F 12.0 °F 28.4 °F 100% 30.03 in 1.5 mi East 33.4 mph 46.0 mph 0.01 in Snow Light Snow
9:29 AM 28.4 °F 12.7 °F 28.4 °F 100% 30.02 in 1.5 mi East 29.9 mph 46.0 mph 0.01 in Snow Light Snow
9:38 AM 28.4 °F 12.3 °F 28.4 °F 100% 30.01 in 2.0 mi East 32.2 mph 41.4 mph 0.01 in Snow Light Snow
9:56 AM 30.0 °F 14.5 °F 28.9 °F 96% 30.03 in 4.0 mi East 32.2 mph 43.7 mph 0.01 in Snow Light Snow
10:13 AM 30.2 °F 14.9 °F 28.4 °F 93% 30.00 in 7.0 mi ESE 31.1 mph 43.7 mph 0.01 in Snow Light Snow
10:24 AM 30.2 °F 14.5 °F 28.4 °F 93% 30.00 in 8.0 mi East 33.4 mph 46.0 mph 0.01 in Snow Light Snow
10:56 AM 30.9 °F 15.3 °F 28.9 °F 92% 30.02 in 7.0 mi ESE 34.5 mph 44.9 mph 0.01 in   Overcast
11:56 AM 30.9 °F 15.3 °F 28.9 °F 92% 29.99 in 9.0 mi ESE 34.5 mph 47.2 mph 0.02 in Snow Light Snow
12:56 PM 30.9 °F 15.5 °F 28.9 °F 92% 29.97 in 10.0 mi ESE 33.4 mph 46.0 mph 0.00 in   Overcast
1:56 PM 30.9 °F 15.7 °F 28.9 °F 92% 29.92 in 10.0 mi ESE 32.2 mph 43.7 mph N/A   Overcast
2:56 PM 32.0 °F 16.3 °F 30.0 °F 92% 29.87 in 10.0 mi ESE 36.8 mph 48.3 mph N/A   Overcast
3:56 PM 33.1 °F 18.7 °F 30.0 °F 89% 29.82 in 10.0 mi ESE 32.2 mph 51.8 mph 0.01 in   Overcast
4:31 PM 33.8 °F 19.2 °F 30.2 °F 87% 29.79 in 10.0 mi ESE 34.5 mph 48.3 mph 0.00 in Rain Light Rain
4:42 PM 33.8 °F 19.9 °F 30.2 °F 87% 29.79 in 10.0 mi ESE 31.1 mph 44.9 mph 0.00 in Rain Light Rain
4:56 PM 33.1 °F 18.0 °F 30.0 °F 89% 29.78 in 10.0 mi ESE 35.7 mph 48.3 mph 0.00 in Rain Light Rain
5:56 PM 34.0 °F 18.9 °F 30.0 °F 85% 29.74 in 10.0 mi ESE 38.0 mph 50.6 mph 0.00 in Rain Light Rain
6:56 PM 35.1 °F 20.6 °F 30.9 °F 85% 29.74 in 10.0 mi ESE 36.8 mph 46.0 mph 0.01 in   Overcast
7:56 PM 35.1 °F 20.0 °F 30.9 °F 85% - 10.0 mi ESE 40.3 mph 48.3 mph 0.00 in Rain Light Rain
8:56 PM 35.1 °F 21.6 °F 32.0 °F 89% 29.71 in 10.0 mi East 31.1 mph 43.7 mph 0.00 in   Overcast
9:56 PM 35.1 °F 20.8 °F 32.0 °F 89% 29.67 in 10.0 mi ESE 35.7 mph 50.6 mph 0.01 in   Overcast
11:56 PM 35.1 °F 22.0 °F 33.1 °F 92% 29.73 in 10.0 mi ESE 28.8 mph 40.3 mph 0.00 in   Overcast